Location: Oklahoma City
(35.4680°N, 97.5160°W)
Time: 19:40:12
(UTC-05:00)

ISS - Visible Passes

Search period start: 25 July 2016 00:00
Search period end: 04 August 2016 00:00
Orbit: 401 x 404 km, 51.6° (Epoch: 25 July)

Date Brightness Start Highest point End Pass type
(mag) Time Alt. Az. Time Alt. Az. Time Alt. Az.
25 Jul -0.1 04:42:16 10° N 04:44:19 15° NNE 04:46:21 10° ENE visible
25 Jul -1.7 21:19:46 10° S 21:21:55 17° SE 21:24:04 10° E visible
25 Jul -1.8 22:55:04 10° WSW 22:58:06 37° NW 22:59:03 30° N visible
26 Jul 0.4 03:50:44 10° NNE 03:51:06 10° NNE 03:51:27 10° NNE visible
26 Jul -2.7 05:24:53 10° NW 05:28:06 58° NE 05:31:19 10° ESE visible
26 Jul -3.3 22:01:54 10° SW 22:05:09 80° NW 22:08:25 10° NE visible
26 Jul 0.2 23:40:44 10° NW 23:42:02 12° NNW 23:43:20 10° N visible
27 Jul -1.3 04:32:12 10° NNW 04:35:06 29° NE 04:38:00 10° E visible
27 Jul -3.0 21:09:10 10° SSW 21:12:16 44° SE 21:15:24 10° ENE visible
27 Jul -0.4 22:46:29 10° WNW 22:48:51 18° NNW 22:51:13 10° NNE visible
28 Jul -0.4 03:41:17 16° NNE 03:42:00 17° NNE 03:44:17 10° ENE visible
28 Jul -3.2 05:15:28 10° WNW 05:18:36 48° SW 05:21:45 10° SSE visible
28 Jul -1.3 21:52:49 10° W 21:55:46 31° NW 21:58:43 10° NNE visible
29 Jul -2.8 20:59:32 10° WSW 21:02:46 64° NW 21:06:00 10° NE visible
29 Jul 0.2 22:38:59 10° NW 22:39:44 11° NNW 22:40:28 10° N visible
30 Jul -0.2 21:44:23 10° WNW 21:46:31 16° NNW 21:48:39 10° NNE visible
